{"data":{"norad_id":66460,"epoch":"2026-05-24T16:55:58.874592Z","epoch_age_seconds":100781,"freshness":"FRESH","line1":"1 66460U 25262E   26144.70554253  .00017125  00000+0  63017-3 0  9992","line2":"2 66460  42.9994 226.7390 0001739 268.1956  91.8696 15.27590559 30535","mean_motion":15.27590559,"eccentricity":0.0001739,"inclination_deg":42.9994,"raan_deg":226.739,"arg_perigee_deg":268.1956,"mean_anomaly_deg":91.8696,"bstar":0.00063017,"rev_number":3053,"period_min":94.266097123739,"perigee_km":481.82432401334,"apogee_km":484.21063354105,"semimajor_km":6861.1544787772,"source":"CELESTRAK","updated_at":"2026-05-25T13:38:21.214597Z"}}